Location: Charleston
(38.3500°N, 81.6330°W)
Time: 17:28:28
(UTC-04:00)

Daily predictions for brighter satellites

Satellite Brightness Start Highest point End
(mag) Time Altitude Azimuth Time Altitude Azimuth Time Altitude Azimuth
USA 267 3.4 20:25:16 10° ESE 20:31:46 67° NE 20:38:16 10° NW
NOSS 2-3 (D) 3.8 20:27:48 10° SSW 20:32:19 64° ESE 20:37:29 10° NE
FENGYUN 3A 4.3 20:27:23 10° S 20:32:41 62° W 20:38:00 10° NNW
Cosmos 1553 Rocket 4.1 20:27:12 10° N 20:33:11 53° E 20:39:04 10° SSE
S3M 4.3 20:27:10 10° N 20:33:16 49° E 20:39:23 10° SSE
Resurs 01 Rocket 1.9 20:37:29 10° SSE 20:41:46 48° ENE 20:46:03 10° N
Cosmos 2151 Rocket 3.5 20:38:11 10° S 20:42:32 69° E 20:46:55 10° NNE
GENESIS II 4.5 20:42:14 10° NW 20:46:08 70° WSW 20:49:58 10° SSE
Envisat 3.6 20:41:31 10° SE 20:46:11 38° ENE 20:50:52 10° N
Cosmos 2263 Rocket 2.6 20:40:46 10° NNW 20:46:17 48° ENE 20:51:44 10° SE
Abrixas 3.6 20:45:24 10° S 20:47:24 20° SE 20:49:11 11° E
Cosmos 1602 3.8 20:43:41 10° S 20:47:31 85° W 20:51:22 10° N
Cosmos 1741 Rocket 4.2 20:44:02 10° N 20:49:13 57° ENE 20:54:24 10° SSE
Cosmos 2322 Rocket 2.4 20:46:14 10° SSW 20:51:56 81° WNW 20:57:40 10° NNE
Cosmos 1536 Rocket 3.6 20:47:46 10° N 20:52:03 60° E 20:56:21 10° SSE
Lacrosse 5 1.9 20:47:51 10° SW 20:52:55 89° NW 20:58:02 10° NE
Atlas Centaur 2 3.7 20:47:49 10° W 20:55:41 42° SSW 21:02:22 12° SE
ATLAS 2AS CENTAUR R/B 3.0 20:50:52 10° SSW 20:58:26 75° ESE 21:06:32 10° NE
SL-16 R/B 2.8 21:00:01 10° SSW 21:05:37 62° WNW 21:11:15 10° NNE
Helios 1B rocket 3.7 21:03:17 10° NE 21:06:26 21° E 21:08:10 16° SE
Cosmos 2219 Rocket 4.0 21:08:26 12° E 21:08:26 12° E 21:09:30 10° ENE
Meteor 1-11 Rocket 4.0 21:07:22 10° SSW 21:13:11 78° W 21:18:55 10° N
FALCON 9 R/B 4.4 21:10:15 10° SSE 21:19:39 - E 21:10:18 10° SSE
Cosmos 1110 Rocket 4.0 21:10:07 10° S 21:15:08 56° ESE 21:20:13 10° NNE
GPS 2-05 Rocket1 4.1 21:12:45 10° W 21:15:45 28° SSW 21:17:20 19° SSE
Cosmos 2322 3.8 21:13:35 10° S 21:19:02 54° ESE 21:24:34 10° NNE
Cosmos 1500 4.4 21:19:37 22° E 21:19:56 22° E 21:22:58 10° NE
Delta 2 Rocket 3.4 21:16:21 10° WSW 21:20:08 56° S 21:22:33 24° ESE
SeaSat 1 2.4 21:17:55 10° NNE 21:22:49 61° ESE 21:27:40 10° SSW
Cosmos 2360 Rocket 2.1 21:17:38 10° SSW 21:23:13 73° ESE 21:28:50 10° NNE
Abrixas rocket 4.5 21:23:16 10° NNW 21:25:37 18° NNE 21:27:31 12° NE
Cosmos 1331 Rocket 3.9 21:21:08 10° S 21:26:13 64° ESE 21:31:24 10° NNE
Meteor 1-23 Rocket 4.1 21:20:54 10° N 21:26:29 73° E 21:31:39 12° SSE
Okean 2 3.9 21:24:10 10° N 21:27:59 37° ENE 21:29:21 29° ESE
Cosmos 482 Debris 4.0 21:24:28 10° SW 21:29:23 63° SE 21:31:10 23° ENE
COSMOS 2428 3.2 21:27:00 10° S 21:32:11 37° ESE 21:37:23 10° NE
Cosmos 1975 4.2 21:33:35 22° ENE 21:33:35 22° ENE 21:36:06 10° NE
Cosmos 220 Rocket 4.1 21:35:04 10° NNW 21:39:24 78° WSW 21:42:04 23° S
CZ-4B DEB 3.9 21:42:42 27° NE 21:42:42 27° NE 21:44:32 10° N
Meteor 1-5 Rocket 4.4 21:39:37 10° SSW 21:44:54 68° W 21:50:12 10° N
Cosmos 2333 Rocket 3.7 21:47:12 18° ENE 21:47:12 18° ENE 21:49:23 10° NE
Cosmos 883 Rocket 4.5 21:39:25 10° N 21:45:34 84° W 21:51:30 11° S
Cosmos 1025 Rocket 2.8 21:44:31 10° N 21:48:48 82° E 21:50:37 34° SSE
USA 186 4.2 21:46:57 10° SSW 21:49:43 23° W 21:52:29 10° NW
Cosmos 1607 4.4 21:43:35 10° NW 21:49:57 63° WSW 21:54:25 21° SSE
Cosmos 2333 4.3 21:45:10 10° S 21:50:34 48° ESE 21:55:58 10° NE
Okean 1 Rocket 3.9 21:48:03 10° SSW 21:52:16 51° W 21:56:33 10° N
Cosmos 1939 Rocket 3.5 21:51:36 20° S 21:54:08 53° W 21:57:58 10° NNW
Cosmos 2237 Rocket 4.3 22:00:25 10° ENE 22:00:25 10° ENE 22:00:31 10° ENE
USA 238 DEB 3.8 21:50:43 10° NNW 21:57:49 70° NE 22:01:04 35° SE
USA 238 3.8 21:50:49 10° NNW 21:57:55 70° NE 22:01:09 35° SE
Tiangong 1 2.8 21:56:21 10° W 21:58:00 22° WSW 21:58:00 22° WSW
Cosmos 1244 Rocket 4.3 21:53:50 16° S 21:58:47 71° E 22:04:54 10° NNE
Helios 1A 3.1 22:01:07 39° S 22:02:36 75° WSW 22:06:52 10° NNW
Cosmos 1818 3.4 22:01:51 10° SSW 22:07:15 79° ESE 22:12:43 10° NNE
ATLAS 3B R/B 2.5 22:00:38 10° NNW 22:07:22 89° SW 22:09:58 40° SSE
ERS-1 Rocket 2.9 22:06:57 51° SE 22:08:04 67° ENE 22:13:03 10° N
Cosmos 1238 Rocket 4.0 22:01:30 10° N 22:08:07 65° E 22:10:05 43° SE
SL-8 R/B 3.8 22:03:36 10° NW 22:08:22 68° NNE 22:09:13 55° E
OAO 1 Rocket 4.5 22:03:18 10° W 22:08:35 60° S 22:09:26 53° SE
YAOGAN 6 3.6 22:10:08 34° SW 22:11:00 41° W 22:14:20 10° NNW
ARGOS 3.2 22:12:31 50° ESE 22:13:16 55° ENE 22:18:31 10° N
Cosmos 1066 Rocket 4.1 22:09:14 10° N 22:14:39 63° E 22:15:33 55° ESE
Okean 1-7 Rocket 4.3 22:10:42 10° NNW 22:15:06 53° W 22:16:59 31° SSW
SL-08 RB Rocket 4.4 22:15:40 40° NE 22:15:40 40° NE 22:19:28 10° N
Resurs 01 Rocket 4.4 22:16:07 10° SW 22:18:28 14° W 22:20:51 10° WNW
Meteor 1-29 3.8 22:17:46 10° N 22:20:47 50° NW 22:20:47 50° NW
Cosmos 2263 Rocket 4.3 22:25:34 10° NW 22:29:48 22° W 22:34:00 10° SSW
Aureole 3 Rocket 4.0 22:22:14 10° N 22:30:06 89° E 22:31:40 54° S
USA 245 3.9 22:31:49 59° NNE 22:31:49 59° NNE 22:35:16 10° N
SPOT 5 3.1 22:31:51 56° NE 22:31:51 56° NE 22:35:52 10° N
NOSS 3-2 (C) 4.3 22:27:21 10° NNW 22:34:45 55° NE 22:36:46 45° E
Cosmos 1844 Rocket 2.5 22:30:44 10° NNW 22:36:26 84° ENE 22:36:49 77° SE
Lacrosse 5 4.4 22:32:49 10° WNW 22:36:31 20° NNW 22:40:14 10° NNE
NOSS 0 Rocket 4.4 22:38:09 44° ENE 22:38:09 44° ENE 22:42:45 10° NNE
MetOp-B 4.1 22:37:45 64° SSW 22:38:27 75° WSW 22:43:49 10° NNW
Cosmos 2278 Rocket 3.2 22:33:22 10° N 22:38:10 33° NE 22:38:10 33° NE
Helios 1B rocket 4.4 22:38:12 10° NNW 22:41:42 27° WNW 22:44:31 14° WSW
Atlas Centaur 2 4.2 22:38:39 10° WSW 22:44:26 22° SSW 22:45:00 21° SSW
H-2A R/B 2.2 22:46:54 62° NNE 22:46:54 62° NNE 22:51:09 10° N
Cosmos 1892 Rocket 4.3 22:41:56 10° NNW 22:45:55 50° WNW 22:45:55 50° WNW
Cosmos 2219 Rocket 2.2 22:50:02 72° SW 22:50:34 80° WNW 22:56:15 10° NNE
Cosmos 1745 Rocket 3.9 22:50:53 69° SSW 22:51:42 84° W 22:57:54 10° N
CENTAUR R/B 4.0 22:47:35 10° NNW 22:54:36 34° NE 22:56:35 31° ENE
NOSS 3-4 (A) 3.5 22:56:26 26° SW 23:00:11 78° WNW 23:06:39 10° NNE
NOSS 3-4 (C) 3.5 22:57:10 32° SW 23:00:17 78° WNW 23:06:46 10° NNE
Terra 3.3 23:04:46 29° NNE 23:04:46 29° NNE 23:07:21 10° N
Cosmos 1386 Rocket 4.5 23:11:06 75° W 23:11:08 76° W 23:17:28 10° N
COSMOS 2428 4.4 23:11:27 10° WSW 23:16:27 30° WNW 23:21:29 10° N
Cosmos 1844 4.4 23:15:57 10° NNW 23:20:44 50° W 23:20:44 50° W
Cosmos 2333 Rocket 3.0 23:29:06 47° WNW 23:29:06 47° WNW 23:34:30 10° NNE
Cosmos 2237 Rocket 3.3 23:42:11 39° N 23:42:11 39° N 23:45:56 10° NNE
